Terminal Aerodrome Forecast
Issued by NWS Wilmington, OH

Current Version | Previous Version | Text Only | Print | Product List | Glossary On
Versions: 1 2 3 4 5 6 7 8 9 10 11 12 13 14 15 16 17 18 19 20 21 22 23 24 25 26 27 28 29
189
FTUS41 KILN 300540 AAA
TAFCVG
TAF AMD
KCVG 300540Z 3006/0112 16006KT P6SM VCTS SCT060CB BKN080
     FM300900 17008KT P6SM SCT250 WS020/20035KT
     FM301200 17010KT P6SM BKN250
     FM301500 19014G21KT P6SM SCT120 BKN250
     FM302300 17012G17KT P6SM VCTS SCT040CB BKN100
     FM010600 18014G21KT P6SM -SHRA VCTS SCT040CB OVC090=

USA.gov is the U.S. government's official web portal to all federal, state and local government web resources and services.